Вернуться в каталог

OMNI-M1

АктивенВоенныеMEO
NORAD 26857·PAYLOAD·🇳🇮 Nicaragua

Запущен Jun 19, 2001 с Cape Canaveral Space Force Station

Loading…

Ближайшие Пролёты (ближайшие 24 часа)

TLE

СвежийSource: Space-Track

Эпоха: Sep 12, 2026, 14:57 UTC

1 26857U 01026A   26255.62326955 -.00000011  00000-0  00000-0 0  9998
2 26857  44.8093 225.1129 0014154  67.9633 292.1907  3.92403114209007

Отслеживайте OMNI-M1 в реальном времени с AllMySat

Download on the App Store